UAE64E OMDB-YMML

Flight info

Callsign UAE64E
Flight time N/A
Altitude 39000
Route ANVIX5G ANVIX L223 TARDI N629 GIDAN P570 EMURU M300 VASTU P895 CIA/N0484F370 P895 BIKOK M641 KAT N640 ELATI DCT 0800S09530E/N0476F390 14S102E 17S106E 19S109E 21S112E DCT LM DCT 25S117E/N0474F410 DCT LST DCT 29S123E 31S127E 33S132E DCT KAMBI N640 AD V255 BENDO Y12 ARBEY ARBEY7A
Aircraft B77W/H-SDE1E2E3FGHIJ2J3J4J5M1RWXY/LB1D1

Departure

Time 2026-05-03 22:52
Airport Dubai International Airport (OMDB)

Arrival

Time N/A
Airport Melbourne Airport (YMML)
Time Latitude Longitude Altitude Speed Heading
2026-05-03 22:23 25.25408 55.35360 14 ft 0 kts 211°
2026-05-03 22:41 25.25409 55.35360 -13 ft 2 kts 211°
2026-05-03 22:41 25.25431 55.35373 15 ft 4 kts 198°
2026-05-03 22:41 25.25457 55.35379 15 ft 4 kts 182°
2026-05-03 22:41 25.25484 55.35377 16 ft 4 kts 163°
2026-05-03 22:42 25.25507 55.35365 17 ft 4 kts 130°
2026-05-03 22:42 25.25511 55.35358 18 ft 0 kts 122°
2026-05-03 22:48 25.25509 55.35363 17 ft 3 kts 122°
2026-05-03 22:49 25.25479 55.35425 15 ft 14 kts 109°
2026-05-03 22:49 25.25466 55.35574 14 ft 25 kts 94°
2026-05-03 22:49 25.25457 55.35738 14 ft 19 kts 48°
2026-05-03 22:49 25.25571 55.35819 14 ft 19 kts 43°
2026-05-03 22:50 25.25561 55.35939 14 ft 3 kts 121°
2026-05-03 22:50 25.25560 55.35940 14 ft 0 kts 121°
2026-05-03 22:51 25.25526 55.36003 14 ft 25 kts 121°
2026-05-03 22:51 25.25305 55.36401 14 ft 98 kts 121°
2026-05-03 22:51 25.24828 55.37260 15 ft 162 kts 121°
2026-05-03 22:51 25.24161 55.38454 199 ft 191 kts 123°
2026-05-03 22:52 25.23448 55.39691 817 ft 192 kts 124°
2026-05-03 22:52 25.22700 55.40965 1256 ft 205 kts 123°
2026-05-03 22:52 25.21897 55.42355 1520 ft 225 kts 122°
2026-05-03 22:52 25.21059 55.43898 1792 ft 242 kts 121°
2026-05-03 22:53 25.20181 55.45514 2240 ft 251 kts 121°
2026-05-03 22:53 25.19270 55.47183 2796 ft 255 kts 122°
2026-05-03 22:53 25.18345 55.48850 3470 ft 255 kts 122°
2026-05-03 22:53 25.17409 55.50527 4036 ft 259 kts 122°
2026-05-03 22:54 25.16453 55.52235 4636 ft 262 kts 122°
2026-05-03 22:54 25.15481 55.53967 5187 ft 268 kts 122°
2026-05-03 22:54 25.14494 55.55723 5770 ft 270 kts 122°
2026-05-03 22:54 25.13499 55.57490 6358 ft 273 kts 122°
2026-05-03 22:55 25.12493 55.59274 6946 ft 275 kts 122°
2026-05-03 22:55 25.11478 55.61070 7551 ft 276 kts 123°
2026-05-03 22:55 25.10271 55.62757 7890 ft 290 kts 134°
2026-05-03 22:55 25.08794 55.64376 8175 ft 306 kts 137°
2026-05-03 22:56 25.07252 55.65997 8674 ft 315 kts 137°
2026-05-03 22:56 25.05656 55.67693 9269 ft 320 kts 136°
2026-05-03 22:56 25.04057 55.69417 9937 ft 323 kts 136°
2026-05-03 22:56 25.02447 55.71173 10534 ft 330 kts 135°
2026-05-03 22:57 25.00764 55.73020 10732 ft 353 kts 135°
2026-05-03 22:57 24.98970 55.74999 10919 ft 376 kts 135°
2026-05-03 22:57 24.97070 55.77095 11151 ft 396 kts 135°
2026-05-03 22:57 24.95097 55.79259 11760 ft 400 kts 137°
2026-05-03 22:58 24.92863 55.81084 12291 ft 401 kts 151°
2026-05-03 22:58 24.90489 55.82760 12705 ft 411 kts 142°
2026-05-03 22:58 24.88315 55.84764 13491 ft 414 kts 139°
2026-05-03 22:58 24.86140 55.86860 14296 ft 416 kts 139°
2026-05-03 22:59 24.83908 55.88913 14962 ft 421 kts 141°
2026-05-03 22:59 24.81589 55.90932 15578 ft 428 kts 142°
2026-05-03 22:59 24.79211 55.92954 16194 ft 434 kts 142°
2026-05-03 22:59 24.76853 55.95067 16854 ft 439 kts 138°
2026-05-03 23:00 24.74604 55.97376 17500 ft 445 kts 135°
2026-05-03 23:00 24.72372 55.99766 18103 ft 450 kts 136°
2026-05-03 23:00 24.70094 56.02166 18652 ft 455 kts 136°
2026-05-03 23:00 24.67776 56.04564 19255 ft 459 kts 137°
2026-05-03 23:01 24.66223 56.06151 19636 ft 462 kts 137°
2026-05-03 23:01 24.63860 56.08561 20236 ft 465 kts 137°
2026-05-03 23:01 24.60694 56.11793 20999 ft 470 kts 137°
2026-05-03 23:01 24.58286 56.14264 21546 ft 475 kts 137°
2026-05-03 23:02 24.56714 56.15952 21888 ft 478 kts 134°
2026-05-03 23:02 24.54500 56.18703 22416 ft 482 kts 130°
2026-05-03 23:02 24.52313 56.21531 22939 ft 487 kts 130°
2026-05-03 23:02 24.50112 56.24381 23448 ft 491 kts 130°
2026-05-03 23:03 24.47904 56.27222 23859 ft 495 kts 131°
2026-05-03 23:03 24.45638 56.30124 24266 ft 499 kts 131°
2026-05-03 23:03 24.43367 56.33014 24668 ft 502 kts 131°
2026-05-03 23:03 24.41073 56.35927 25067 ft 506 kts 131°
2026-05-03 23:04 24.38763 56.38857 25445 ft 510 kts 131°
2026-05-03 23:04 24.36433 56.41814 25823 ft 513 kts 131°
2026-05-03 23:04 24.34114 56.44756 26206 ft 517 kts 131°
2026-05-03 23:04 24.31755 56.47747 26573 ft 521 kts 131°
2026-05-03 23:05 24.29407 56.50787 26943 ft 525 kts 129°
2026-05-03 23:05 24.27218 56.54005 27289 ft 528 kts 126°
2026-05-03 23:05 24.25061 56.57289 27652 ft 532 kts 126°
2026-05-03 23:05 24.22897 56.60598 27977 ft 536 kts 126°
2026-05-03 23:06 24.20709 56.63931 28275 ft 540 kts 126°
2026-05-03 23:06 24.18502 56.67274 28618 ft 543 kts 126°
2026-05-03 23:06 24.16278 56.70625 28933 ft 545 kts 127°
2026-05-03 23:06 24.14039 56.73989 29287 ft 547 kts 127°
2026-05-03 23:07 24.11799 56.77351 29747 ft 547 kts 127°
2026-05-03 23:07 24.09559 56.80710 30174 ft 545 kts 127°
2026-05-03 23:07 24.07354 56.84020 30608 ft 544 kts 127°
2026-05-03 23:07 24.05127 56.87358 31041 ft 542 kts 127°
2026-05-03 23:08 24.02907 56.90682 31484 ft 540 kts 127°
2026-05-03 23:08 24.00688 56.93987 31919 ft 538 kts 127°
2026-05-03 23:08 23.98471 56.97281 32340 ft 537 kts 128°
2026-05-03 23:08 23.96256 57.00569 32748 ft 536 kts 128°
2026-05-03 23:09 23.94048 57.03847 33138 ft 535 kts 128°
2026-05-03 23:09 23.91843 57.07123 33534 ft 534 kts 128°
2026-05-03 23:09 23.89645 57.10385 33912 ft 533 kts 128°
2026-05-03 23:09 23.87448 57.13648 34196 ft 533 kts 128°
2026-05-03 23:10 23.85254 57.16910 34493 ft 532 kts 128°
2026-05-03 23:10 23.83065 57.20165 34881 ft 529 kts 128°
2026-05-03 23:10 23.80893 57.23397 35268 ft 527 kts 128°
2026-05-03 23:10 23.78727 57.26615 35585 ft 525 kts 128°
2026-05-03 23:11 23.76562 57.29829 35847 ft 525 kts 128°
2026-05-03 23:11 23.74399 57.33038 36156 ft 524 kts 128°
2026-05-03 23:11 23.72244 57.36233 36454 ft 523 kts 128°
2026-05-03 23:11 23.70498 57.38770 36668 ft 522 kts 129°
2026-05-03 23:12 23.68946 57.40942 36774 ft 523 kts 130°
2026-05-03 23:12 23.64362 57.47176 37035 ft 527 kts 130°
2026-05-03 23:12 23.62072 57.50289 37241 ft 526 kts 130°
2026-05-03 23:13 23.59814 57.53377 37419 ft 527 kts 130°
2026-05-03 23:13 23.57536 57.56508 37576 ft 528 kts 129°
2026-05-03 23:13 23.55251 57.59658 37652 ft 530 kts 129°
2026-05-03 23:14 23.50663 57.65977 37883 ft 532 kts 129°
2026-05-03 23:14 23.46033 57.72322 37981 ft 537 kts 130°
2026-05-03 23:14 23.43702 57.75501 38167 ft 535 kts 130°
2026-05-03 23:15 23.41384 57.78658 38394 ft 534 kts 130°
2026-05-03 23:15 23.36730 57.84996 38491 ft 537 kts 130°
2026-05-03 23:16 23.32055 57.91360 38647 ft 539 kts 130°
2026-05-03 23:16 23.27369 57.97738 38613 ft 539 kts 130°
2026-05-03 23:16 23.25034 58.00915 38444 ft 535 kts 129°
2026-05-03 23:17 23.22875 58.04110 38108 ft 528 kts 126°
2026-05-03 23:17 23.20803 58.07394 37528 ft 526 kts 125°
2026-05-03 23:17 23.18750 58.10699 36868 ft 526 kts 125°
2026-05-03 23:17 23.16703 58.13993 36305 ft 526 kts 125°
2026-05-03 23:18 23.14650 58.17276 35797 ft 524 kts 125°
2026-05-03 23:18 23.12598 58.20537 35350 ft 521 kts 125°
2026-05-03 23:18 23.10551 58.23776 34969 ft 518 kts 125°
2026-05-03 23:18 23.08507 58.27006 34854 ft 519 kts 125°
2026-05-03 23:19 23.06460 58.30238 34838 ft 518 kts 125°
2026-05-03 23:19 23.02018 58.36351 34827 ft 512 kts 137°
2026-05-03 23:20 22.96585 58.41202 34821 ft 505 kts 150°
2026-05-03 23:20 22.90591 58.45109 34830 ft 502 kts 152°
2026-05-03 23:21 22.84586 58.49007 34825 ft 503 kts 152°
2026-05-03 23:21 22.78596 58.52959 34818 ft 505 kts 151°
2026-05-03 23:22 22.69579 58.58930 34816 ft 508 kts 151°
2026-05-03 23:22 22.63540 58.62916 34814 ft 509 kts 151°
2026-05-03 23:23 22.57526 58.66883 34811 ft 509 kts 151°
2026-05-03 23:23 22.51487 58.70865 34804 ft 508 kts 151°
2026-05-03 23:24 22.45456 58.74838 34805 ft 506 kts 151°
2026-05-03 23:24 22.39431 58.78803 34799 ft 505 kts 151°
2026-05-03 23:25 22.33429 58.82749 34799 ft 504 kts 151°
2026-05-03 23:25 22.27451 58.86686 34798 ft 503 kts 149°
2026-05-03 23:26 22.21966 58.91374 34812 ft 505 kts 137°
2026-05-03 23:26 22.17292 58.97013 34811 ft 506 kts 130°
2026-05-03 23:27 22.12833 59.02893 34792 ft 507 kts 130°
2026-05-03 23:27 22.08336 59.08777 34789 ft 509 kts 130°
2026-05-03 23:28 22.03798 59.14654 34787 ft 510 kts 130°
2026-05-03 23:28 21.99235 59.20542 34781 ft 512 kts 130°
2026-05-03 23:29 21.94656 59.26444 34770 ft 513 kts 130°
2026-05-03 23:29 21.90181 59.32210 34775 ft 514 kts 130°
2026-05-03 23:30 21.85592 59.38118 34755 ft 514 kts 130°
2026-05-03 23:30 21.81003 59.44019 34757 ft 514 kts 130°
2026-05-03 23:31 21.76412 59.49916 34746 ft 513 kts 130°
2026-05-03 23:31 21.71826 59.55799 34747 ft 512 kts 130°
2026-05-03 23:32 21.67242 59.61674 34748 ft 512 kts 130°
2026-05-03 23:32 21.62702 59.67487 34743 ft 511 kts 130°
2026-05-03 23:33 21.58137 59.73328 34745 ft 511 kts 130°
2026-05-03 23:33 21.53559 59.79172 34745 ft 510 kts 130°
2026-05-03 23:34 21.48968 59.84998 34751 ft 510 kts 131°
2026-05-03 23:34 21.44370 59.90826 34747 ft 511 kts 130°
2026-05-03 23:35 21.39772 59.96653 34747 ft 511 kts 130°
2026-05-03 23:35 21.35169 60.02482 34751 ft 511 kts 130°
2026-05-03 23:36 21.30569 60.08303 34749 ft 512 kts 130°
2026-05-03 23:36 21.25992 60.14088 34751 ft 511 kts 130°
2026-05-03 23:37 21.21386 60.19907 34754 ft 512 kts 130°
2026-05-03 23:37 21.16783 60.25732 34753 ft 511 kts 130°
2026-05-03 23:38 21.12183 60.31552 34752 ft 511 kts 130°
2026-05-03 23:38 21.07612 60.37326 34752 ft 511 kts 130°
2026-05-03 23:39 21.03013 60.43130 34755 ft 510 kts 130°
2026-05-03 23:39 20.98416 60.48924 34752 ft 510 kts 130°
2026-05-03 23:40 20.93819 60.54713 34770 ft 510 kts 130°
2026-05-03 23:40 20.89221 60.60498 34752 ft 510 kts 130°
2026-05-03 23:41 20.84656 60.66234 34760 ft 509 kts 130°
2026-05-03 23:41 20.80054 60.72011 34754 ft 509 kts 130°
2026-05-03 23:42 20.75455 60.77779 34757 ft 509 kts 130°
2026-05-03 23:42 20.70857 60.83541 34772 ft 509 kts 130°
2026-05-03 23:43 20.66257 60.89300 34755 ft 509 kts 130°
2026-05-03 23:43 20.61702 60.95079 34750 ft 509 kts 127°
2026-05-03 23:44 20.57791 61.01361 34757 ft 508 kts 122°
2026-05-03 23:44 20.54068 61.07710 34757 ft 508 kts 122°
2026-05-03 23:45 20.50301 61.14081 34762 ft 508 kts 122°
2026-05-03 23:45 20.46495 61.20457 34773 ft 508 kts 122°
2026-05-03 23:46 20.42686 61.26811 34755 ft 508 kts 122°
2026-05-03 23:46 20.38879 61.33156 34759 ft 508 kts 122°
2026-05-03 23:47 20.35095 61.39459 34775 ft 507 kts 122°
2026-05-03 23:47 20.31287 61.45796 34758 ft 507 kts 122°
2026-05-03 23:48 20.27478 61.52129 34763 ft 507 kts 122°
2026-05-03 23:48 20.23669 61.58454 34771 ft 507 kts 122°
2026-05-03 23:49 20.20504 61.63705 34753 ft 506 kts 122°
2026-05-03 23:49 20.16697 61.70014 34771 ft 506 kts 122°
2026-05-03 23:50 20.12893 61.76313 34770 ft 505 kts 122°
2026-05-03 23:50 20.09090 61.82601 34763 ft 505 kts 122°
2026-05-03 23:51 20.05288 61.88882 34758 ft 505 kts 122°
2026-05-03 23:51 20.01508 61.95120 34777 ft 504 kts 122°
2026-05-03 23:52 19.97705 62.01389 34761 ft 503 kts 122°
2026-05-03 23:52 19.93911 62.07637 34773 ft 503 kts 122°
2026-05-03 23:53 19.90115 62.13881 34776 ft 502 kts 122°
2026-05-03 23:53 19.86323 62.20113 34772 ft 502 kts 122°
2026-05-03 23:54 19.82548 62.26310 34765 ft 502 kts 122°
2026-05-03 23:54 19.78753 62.32533 34780 ft 502 kts 122°
2026-05-03 23:55 19.74945 62.38772 34787 ft 503 kts 122°
2026-05-03 23:55 19.71131 62.45013 34768 ft 504 kts 122°
2026-05-03 23:56 19.67310 62.51260 34780 ft 505 kts 122°
2026-05-03 23:56 19.63483 62.57508 34767 ft 505 kts 122°
2026-05-03 23:57 19.59645 62.63769 34768 ft 506 kts 122°
2026-05-03 23:57 19.55807 62.70024 34781 ft 505 kts 122°
2026-05-03 23:58 19.51974 62.76263 34773 ft 504 kts 122°
2026-05-03 23:58 19.48180 62.82434 34777 ft 502 kts 122°
2026-05-03 23:59 19.44359 62.88643 34786 ft 501 kts 123°
2026-05-03 23:59 19.40546 62.94830 34772 ft 501 kts 123°
2026-05-04 00:00 19.36741 63.01000 34775 ft 500 kts 123°
2026-05-04 00:00 19.32932 63.07170 34788 ft 500 kts 123°
2026-05-04 00:01 19.29120 63.13337 34785 ft 500 kts 123°
2026-05-04 00:01 19.25333 63.19459 34780 ft 500 kts 123°
2026-05-04 00:02 19.21508 63.25635 34781 ft 500 kts 123°
2026-05-04 00:02 19.17687 63.31800 34780 ft 500 kts 123°
2026-05-04 00:03 19.13872 63.37949 34782 ft 500 kts 123°
2026-05-04 00:03 19.10049 63.44104 34778 ft 500 kts 123°
2026-05-04 00:04 19.06226 63.50255 34781 ft 500 kts 123°
2026-05-04 00:04 19.02424 63.56365 34783 ft 500 kts 123°
2026-05-04 00:05 18.98597 63.62508 34781 ft 500 kts 123°
2026-05-04 00:05 18.94773 63.68639 34788 ft 499 kts 123°
2026-05-04 00:06 18.90969 63.74734 34786 ft 499 kts 123°
2026-05-04 00:06 18.87141 63.80863 34783 ft 500 kts 123°
2026-05-04 00:07 18.83311 63.86991 34775 ft 500 kts 123°
2026-05-04 00:07 18.79477 63.93118 34788 ft 499 kts 122°
2026-05-04 00:08 18.75646 63.99234 34783 ft 499 kts 122°
2026-05-04 00:08 18.71842 64.05302 34783 ft 499 kts 122°
2026-05-04 00:09 18.68012 64.11406 34784 ft 498 kts 122°
2026-05-04 00:09 18.64180 64.17506 34784 ft 498 kts 122°
2026-05-04 00:10 18.60345 64.23606 34782 ft 499 kts 123°
2026-05-04 00:10 18.56511 64.29697 34787 ft 498 kts 122°
2026-05-04 00:11 18.52676 64.35785 34787 ft 498 kts 122°
2026-05-04 00:11 18.48867 64.41826 34784 ft 498 kts 122°
2026-05-04 00:12 18.45031 64.47904 34789 ft 498 kts 122°
2026-05-04 00:12 18.41190 64.53984 34791 ft 498 kts 122°
2026-05-04 00:13 18.37347 64.60060 34788 ft 498 kts 122°
2026-05-04 00:13 18.33500 64.66138 34788 ft 498 kts 122°
2026-05-04 00:14 18.29678 64.72171 34790 ft 497 kts 122°
2026-05-04 00:14 18.25839 64.78224 34787 ft 496 kts 122°
2026-05-04 00:15 18.22007 64.84261 34790 ft 495 kts 122°
2026-05-04 00:15 18.18180 64.90286 34790 ft 494 kts 122°
2026-05-04 00:16 18.14360 64.96292 34790 ft 494 kts 122°
2026-05-04 00:16 18.10541 65.02292 34791 ft 494 kts 122°
2026-05-04 00:17 18.06719 65.08292 34792 ft 494 kts 122°
2026-05-04 00:17 18.02914 65.14259 34793 ft 494 kts 122°
2026-05-04 00:18 17.99086 65.20256 34793 ft 494 kts 122°
2026-05-04 00:18 17.95257 65.26251 34793 ft 494 kts 122°
2026-05-04 00:19 17.91424 65.32244 34793 ft 494 kts 122°
2026-05-04 00:19 17.87595 65.38228 34791 ft 494 kts 122°
2026-05-04 00:20 17.83762 65.44212 34791 ft 493 kts 122°
2026-05-04 00:20 17.79953 65.50152 34794 ft 493 kts 122°
2026-05-04 00:21 17.76124 65.56119 34797 ft 492 kts 123°
2026-05-04 00:21 17.72295 65.62081 34796 ft 492 kts 123°
2026-05-04 00:22 17.68470 65.68032 34797 ft 491 kts 123°
2026-05-04 00:22 17.64649 65.73973 34802 ft 491 kts 123°
2026-05-04 00:23 17.60858 65.79874 34797 ft 491 kts 122°
2026-05-04 00:23 17.57130 65.85887 34798 ft 491 kts 121°
2026-05-04 00:24 17.53445 65.91912 34802 ft 491 kts 121°
2026-05-04 00:24 17.49743 65.97939 34800 ft 491 kts 121°
2026-05-04 00:25 17.46059 66.03908 34801 ft 491 kts 122°
2026-05-04 00:25 17.42341 66.09918 34801 ft 491 kts 122°
2026-05-04 00:26 17.38626 66.15919 34804 ft 491 kts 122°
2026-05-04 00:26 17.34904 66.21925 34803 ft 491 kts 122°
2026-05-04 00:27 17.31185 66.27925 34804 ft 491 kts 122°
2026-05-04 00:27 17.27459 66.33929 34806 ft 492 kts 122°
2026-05-04 00:28 17.23732 66.39928 34809 ft 492 kts 122°
2026-05-04 00:28 17.19999 66.45933 34808 ft 492 kts 122°
2026-05-04 00:29 17.16288 66.51897 34808 ft 492 kts 122°
2026-05-04 00:29 17.12548 66.57903 34811 ft 492 kts 122°
2026-05-04 00:30 17.08804 66.63910 34808 ft 493 kts 122°
2026-05-04 00:30 17.05057 66.69916 34808 ft 493 kts 122°
2026-05-04 00:31 17.01312 66.75913 34812 ft 493 kts 122°
2026-05-04 00:31 16.97569 66.81903 34809 ft 492 kts 122°
2026-05-04 00:32 16.93821 66.87894 34810 ft 492 kts 122°
2026-05-04 00:32 16.90106 66.93829 34814 ft 492 kts 122°
2026-05-04 00:33 16.84489 67.02791 34815 ft 491 kts 122°
2026-05-04 00:34 16.80743 67.08762 34817 ft 491 kts 122°
2026-05-04 00:34 16.76997 67.14729 34820 ft 492 kts 122°
2026-05-04 00:35 16.73241 67.20704 34819 ft 491 kts 122°
2026-05-04 00:35 16.69488 67.26673 34820 ft 492 kts 122°
2026-05-04 00:36 16.66368 67.31629 34815 ft 492 kts 122°
2026-05-04 00:36 16.62611 67.37593 34821 ft 492 kts 122°
2026-05-04 00:37 16.58852 67.43555 34818 ft 492 kts 122°
2026-05-04 00:37 16.55094 67.49511 34821 ft 492 kts 122°
2026-05-04 00:38 16.51332 67.55469 34825 ft 492 kts 122°
2026-05-04 00:38 16.47596 67.61379 34816 ft 492 kts 122°
2026-05-04 00:39 16.43834 67.67326 34826 ft 491 kts 122°
2026-05-04 00:39 16.40072 67.73268 34822 ft 490 kts 122°
2026-05-04 00:40 16.36318 67.79194 34821 ft 489 kts 122°
2026-05-04 00:40 16.32571 67.85104 34827 ft 489 kts 122°
2026-05-04 00:41 16.28846 67.90976 34826 ft 488 kts 122°
2026-05-04 00:41 16.25102 67.96880 34824 ft 488 kts 122°
2026-05-04 00:42 16.21380 68.02796 34826 ft 488 kts 122°
2026-05-04 00:42 16.17663 68.08712 34827 ft 488 kts 122°
2026-05-04 00:43 16.13946 68.14619 34824 ft 487 kts 122°
2026-05-04 00:43 16.10234 68.20508 34826 ft 487 kts 122°
2026-05-04 00:44 16.06520 68.26395 34825 ft 486 kts 122°
2026-05-04 00:44 16.02830 68.32240 34831 ft 486 kts 122°
2026-05-04 00:45 15.99118 68.38114 34825 ft 486 kts 122°
2026-05-04 00:45 15.95401 68.43992 34828 ft 486 kts 122°
2026-05-04 00:46 15.91679 68.49873 34829 ft 487 kts 122°
2026-05-04 00:46 15.87958 68.55749 34828 ft 486 kts 122°
2026-05-04 00:47 15.84258 68.61585 34826 ft 486 kts 122°
2026-05-04 00:47 15.80536 68.67453 34827 ft 486 kts 122°
2026-05-04 00:48 15.76816 68.73312 34825 ft 486 kts 122°
2026-05-04 00:48 15.73093 68.79172 34830 ft 486 kts 122°
2026-05-04 00:49 15.69370 68.85026 34834 ft 485 kts 122°
2026-05-04 00:49 15.65649 68.90874 34826 ft 486 kts 122°
2026-05-04 00:50 15.61923 68.96723 34829 ft 485 kts 122°
2026-05-04 00:50 15.58229 69.02521 34824 ft 485 kts 122°
2026-05-04 00:51 15.54507 69.08355 34831 ft 484 kts 122°
2026-05-04 00:51 15.50796 69.14168 34824 ft 483 kts 122°
2026-05-04 00:52 15.47082 69.19983 34835 ft 483 kts 122°
2026-05-04 00:52 15.43386 69.25763 34829 ft 483 kts 123°
2026-05-04 00:53 15.39661 69.31586 34837 ft 484 kts 123°
2026-05-04 00:53 15.35933 69.37408 34828 ft 485 kts 122°
2026-05-04 00:54 15.32203 69.43229 34829 ft 485 kts 123°
2026-05-04 00:54 15.28470 69.49051 34825 ft 485 kts 123°
2026-05-04 00:55 15.24737 69.54868 34831 ft 485 kts 123°
2026-05-04 00:55 15.20999 69.60690 34825 ft 485 kts 123°
2026-05-04 00:56 15.17260 69.66507 34830 ft 485 kts 123°
2026-05-04 00:56 15.13544 69.72287 34829 ft 486 kts 123°
2026-05-04 00:57 15.09795 69.78130 34832 ft 486 kts 123°
2026-05-04 00:57 15.06078 69.83986 34830 ft 486 kts 123°
2026-05-04 00:58 15.02398 69.89793 34833 ft 486 kts 123°
2026-05-04 00:58 14.98690 69.95631 34832 ft 485 kts 123°
2026-05-04 00:59 14.94981 70.01460 34834 ft 485 kts 123°
2026-05-04 00:59 14.91271 70.07287 34833 ft 485 kts 123°
2026-05-04 01:00 14.87560 70.13111 34837 ft 485 kts 123°
2026-05-04 01:00 14.83842 70.18941 34837 ft 485 kts 123°
2026-05-04 01:01 14.80129 70.24760 34839 ft 485 kts 123°
2026-05-04 01:01 14.76434 70.30548 34837 ft 485 kts 123°
2026-05-04 01:02 14.72715 70.36366 34831 ft 485 kts 123°
2026-05-04 01:02 14.69000 70.42176 34837 ft 483 kts 123°
2026-05-04 01:03 14.65292 70.47970 34836 ft 483 kts 123°
2026-05-04 01:03 14.61588 70.53753 34838 ft 482 kts 123°
2026-05-04 01:04 14.57902 70.59504 34832 ft 483 kts 123°
2026-05-04 01:04 14.54191 70.65291 34845 ft 483 kts 123°
2026-05-04 01:05 14.50473 70.71085 34839 ft 484 kts 123°
2026-05-04 01:05 14.46775 70.76842 34844 ft 484 kts 123°
2026-05-04 01:06 14.43051 70.82638 34835 ft 484 kts 123°
2026-05-04 01:06 14.39326 70.88431 34843 ft 484 kts 123°
2026-05-04 01:07 14.35604 70.94215 34841 ft 484 kts 123°
2026-05-04 01:07 14.31907 71.00015 34842 ft 484 kts 123°
2026-05-04 01:08 14.28246 71.05827 34836 ft 483 kts 123°
2026-05-04 01:08 14.24582 71.11642 34840 ft 483 kts 123°
2026-05-04 01:09 14.20912 71.17450 34840 ft 483 kts 123°
2026-05-04 01:09 14.17267 71.23209 34844 ft 483 kts 123°
2026-05-04 01:10 14.13584 71.29025 34842 ft 483 kts 123°
2026-05-04 01:10 14.09905 71.34830 34843 ft 483 kts 123°
2026-05-04 01:11 14.06229 71.40626 34840 ft 483 kts 123°
2026-05-04 01:11 14.02579 71.46377 34843 ft 482 kts 123°
2026-05-04 01:12 13.98904 71.52165 34845 ft 482 kts 123°
2026-05-04 01:12 13.95229 71.57949 34846 ft 483 kts 123°
2026-05-04 01:13 13.91552 71.63732 34843 ft 483 kts 123°
2026-05-04 01:13 13.87862 71.69530 34843 ft 483 kts 123°
2026-05-04 01:14 13.84183 71.75310 34847 ft 482 kts 123°
2026-05-04 01:14 13.80528 71.81046 34843 ft 482 kts 123°
2026-05-04 01:15 13.76849 71.86816 34850 ft 481 kts 123°
2026-05-04 01:15 13.73169 71.92584 34843 ft 482 kts 123°
2026-05-04 01:16 13.69494 71.98341 34847 ft 481 kts 123°
2026-05-04 01:16 13.65485 72.03847 34850 ft 481 kts 130°
2026-05-04 01:17 13.61232 72.09169 34852 ft 481 kts 130°
2026-05-04 01:17 13.57000 72.14466 34845 ft 482 kts 129°
2026-05-04 01:18 13.52762 72.19809 34846 ft 482 kts 129°
2026-05-04 01:18 13.48528 72.25160 34848 ft 482 kts 129°
2026-05-04 01:19 13.44301 72.30504 34840 ft 481 kts 130°
2026-05-04 01:19 13.40100 72.35809 34848 ft 481 kts 130°
2026-05-04 01:20 13.35874 72.41142 34846 ft 481 kts 130°
2026-05-04 01:20 13.31644 72.46475 34843 ft 481 kts 130°
2026-05-04 01:21 13.27413 72.51807 34853 ft 481 kts 129°
2026-05-04 01:21 13.23183 72.57135 34847 ft 482 kts 130°
2026-05-04 01:22 13.18949 72.62463 34854 ft 482 kts 130°
2026-05-04 01:22 13.14709 72.67797 34851 ft 482 kts 130°
2026-05-04 01:23 13.10460 72.73138 34846 ft 483 kts 130°
2026-05-04 01:23 13.06237 72.78445 34852 ft 483 kts 130°
2026-05-04 01:24 13.01980 72.83790 34852 ft 483 kts 130°
2026-05-04 01:24 12.97724 72.89131 34852 ft 483 kts 130°
2026-05-04 01:25 12.94192 72.93560 34854 ft 483 kts 130°
2026-05-04 01:25 12.89940 72.98891 34846 ft 483 kts 130°
2026-05-04 01:26 12.85692 73.04212 34853 ft 482 kts 130°
2026-05-04 01:26 12.81434 73.09543 34852 ft 483 kts 130°
2026-05-04 01:27 12.77175 73.14871 34852 ft 483 kts 130°
2026-05-04 01:27 12.72914 73.20200 34852 ft 483 kts 130°
2026-05-04 01:28 12.68676 73.25497 34853 ft 483 kts 130°
2026-05-04 01:28 12.64413 73.30822 34855 ft 483 kts 130°
2026-05-04 01:29 12.60143 73.36153 34855 ft 484 kts 130°
2026-05-04 01:29 12.55871 73.41483 34858 ft 484 kts 130°
2026-05-04 01:30 12.51597 73.46811 34858 ft 484 kts 130°
2026-05-04 01:30 12.47324 73.52137 34862 ft 484 kts 130°
2026-05-04 01:31 12.43067 73.57438 34857 ft 484 kts 130°
2026-05-04 01:31 12.38791 73.62761 34862 ft 484 kts 130°
2026-05-04 01:32 12.34514 73.68082 34859 ft 484 kts 130°
2026-05-04 01:32 12.30231 73.73408 34859 ft 484 kts 130°
2026-05-04 01:33 12.25947 73.78731 34862 ft 484 kts 130°
2026-05-04 01:33 12.21666 73.84048 34855 ft 484 kts 130°
2026-05-04 01:34 12.17390 73.89356 34856 ft 483 kts 130°
2026-05-04 01:34 12.13113 73.94662 34858 ft 483 kts 130°
2026-05-04 01:35 12.08873 73.99919 34860 ft 482 kts 130°
2026-05-04 01:35 12.04606 74.05206 34855 ft 482 kts 130°
2026-05-04 01:36 12.00336 74.10496 34860 ft 482 kts 130°
2026-05-04 01:36 11.96056 74.15793 34862 ft 482 kts 130°
2026-05-04 01:37 11.91811 74.21043 34866 ft 482 kts 131°
2026-05-04 01:37 11.87543 74.26322 34858 ft 481 kts 130°
2026-05-04 01:38 11.83284 74.31586 34858 ft 481 kts 130°
2026-05-04 01:38 11.79022 74.36850 34859 ft 480 kts 130°
2026-05-04 01:39 11.74766 74.42104 34859 ft 480 kts 130°
2026-05-04 01:39 11.70505 74.47361 34862 ft 480 kts 130°
2026-05-04 01:40 11.66243 74.52617 34861 ft 481 kts 130°
2026-05-04 01:40 11.61975 74.57877 34856 ft 481 kts 131°
2026-05-04 01:41 11.57733 74.63104 34861 ft 480 kts 131°
2026-05-04 01:41 11.53474 74.68348 34857 ft 479 kts 131°
2026-05-04 01:42 11.49221 74.73582 34856 ft 478 kts 131°
2026-05-04 01:42 11.44981 74.78798 34859 ft 477 kts 131°
2026-05-04 01:43 11.40753 74.83996 34861 ft 476 kts 131°
2026-05-04 01:43 11.36553 74.89159 34860 ft 476 kts 131°
2026-05-04 01:44 11.32317 74.94358 34858 ft 476 kts 131°
2026-05-04 01:44 11.28085 74.99549 34863 ft 476 kts 131°
2026-05-04 01:45 11.23850 75.04743 34862 ft 477 kts 131°
2026-05-04 01:45 11.17476 75.12558 34860 ft 478 kts 131°
2026-05-04 01:46 11.13245 75.17742 34866 ft 479 kts 130°
2026-05-04 01:46 11.08979 75.22967 34861 ft 480 kts 131°
2026-05-04 01:47 11.04702 75.28202 34862 ft 481 kts 131°
2026-05-04 01:47 11.00423 75.33436 34861 ft 481 kts 131°
2026-05-04 01:48 10.96140 75.38674 34864 ft 480 kts 131°
2026-05-04 01:48 10.91866 75.43897 34863 ft 479 kts 130°
2026-05-04 01:49 10.87633 75.49068 34864 ft 478 kts 130°
2026-05-04 01:49 10.83382 75.54260 34863 ft 477 kts 130°
2026-05-04 01:50 10.79131 75.59447 34869 ft 477 kts 130°
2026-05-04 01:50 10.74880 75.64632 34866 ft 477 kts 130°
2026-05-04 01:51 10.70623 75.69822 34869 ft 478 kts 130°
2026-05-04 01:51 10.66366 75.75011 34872 ft 478 kts 130°
2026-05-04 01:52 10.62127 75.80174 34867 ft 479 kts 130°
2026-05-04 01:52 10.57849 75.85381 34874 ft 480 kts 130°
2026-05-04 01:53 10.53566 75.90594 34872 ft 481 kts 130°
2026-05-04 01:53 10.49279 75.95808 34871 ft 481 kts 130°
2026-05-04 01:54 10.44984 76.01030 34873 ft 481 kts 130°
2026-05-04 01:54 10.40696 76.06240 34871 ft 480 kts 130°
2026-05-04 01:55 10.36406 76.11451 34873 ft 480 kts 130°
2026-05-04 01:55 10.32123 76.16653 34870 ft 480 kts 131°
2026-05-04 01:56 10.27841 76.21849 34866 ft 479 kts 131°
2026-05-04 01:56 10.23565 76.27036 34864 ft 479 kts 131°
2026-05-04 01:57 10.19282 76.32229 34857 ft 478 kts 131°
2026-05-04 01:57 10.15039 76.37372 34858 ft 478 kts 131°
2026-05-04 01:58 10.10755 76.42533 34859 ft 477 kts 131°
2026-05-04 01:58 10.06462 76.47686 34859 ft 477 kts 131°
2026-05-04 01:59 10.02173 76.52836 34868 ft 477 kts 131°
2026-05-04 01:59 9.97887 76.57983 34875 ft 477 kts 131°
2026-05-04 02:00 9.93601 76.63131 34880 ft 477 kts 131°
2026-05-04 02:00 9.89342 76.68243 34905 ft 477 kts 131°
2026-05-04 02:01 9.85062 76.73379 34897 ft 476 kts 131°
2026-05-04 02:01 9.80777 76.78518 34897 ft 476 kts 131°
2026-05-04 02:02 9.76501 76.83643 34913 ft 476 kts 131°
2026-05-04 02:02 9.72222 76.88768 34906 ft 475 kts 131°
2026-05-04 02:03 9.67969 76.93863 34923 ft 475 kts 131°
2026-05-04 02:03 9.63704 76.98970 34927 ft 474 kts 131°
2026-05-04 02:04 9.59444 77.04068 34931 ft 474 kts 131°
2026-05-04 02:04 9.55181 77.09167 34929 ft 473 kts 131°
2026-05-04 02:05 9.50923 77.14258 34928 ft 474 kts 131°
2026-05-04 02:05 9.46660 77.19353 34928 ft 473 kts 131°
2026-05-04 02:06 9.42428 77.24409 34909 ft 473 kts 131°
2026-05-04 02:06 9.38169 77.29495 34917 ft 474 kts 131°
2026-05-04 02:07 9.33898 77.34593 34919 ft 474 kts 131°
2026-05-04 02:07 9.29622 77.39695 34886 ft 475 kts 131°
2026-05-04 02:08 9.25350 77.44791 34890 ft 475 kts 131°
2026-05-04 02:08 9.21072 77.49893 34888 ft 475 kts 131°
2026-05-04 02:09 9.16819 77.54962 34865 ft 475 kts 131°
2026-05-04 02:09 9.12538 77.60065 34869 ft 474 kts 131°
2026-05-04 02:10 9.08273 77.65149 34868 ft 473 kts 131°
2026-05-04 02:10 9.04734 77.69366 34857 ft 472 kts 131°
2026-05-04 02:11 9.00491 77.74422 34856 ft 470 kts 132°
2026-05-04 02:11 8.95571 77.80281 34862 ft 469 kts 132°
2026-05-04 02:12 8.92025 77.84502 34858 ft 469 kts 132°
2026-05-04 02:12 8.87804 77.89525 34853 ft 469 kts 131°
2026-05-04 02:13 8.83596 77.94530 34862 ft 470 kts 131°
2026-05-04 02:13 8.79345 77.99586 34866 ft 472 kts 132°
2026-05-04 02:14 8.75085 78.04648 34859 ft 473 kts 132°
2026-05-04 02:14 8.70819 78.09716 34858 ft 473 kts 132°
2026-05-04 02:15 8.66576 78.14756 34857 ft 473 kts 132°
2026-05-04 02:15 8.62313 78.19818 34858 ft 473 kts 132°
2026-05-04 02:16 8.58050 78.24876 34859 ft 472 kts 132°
2026-05-04 02:16 8.53796 78.29924 34863 ft 471 kts 132°
2026-05-04 02:17 8.49544 78.34964 34863 ft 471 kts 132°
2026-05-04 02:17 8.45300 78.39996 34869 ft 470 kts 132°
2026-05-04 02:18 8.41056 78.45024 34869 ft 470 kts 132°
2026-05-04 02:18 8.36817 78.50049 34872 ft 470 kts 133°
2026-05-04 02:19 8.32574 78.55075 34874 ft 470 kts 132°
2026-05-04 02:19 8.28328 78.60099 34877 ft 470 kts 132°
2026-05-04 02:20 8.23990 78.65042 34875 ft 470 kts 134°
2026-05-04 02:20 8.19594 78.69936 34877 ft 470 kts 133°
2026-05-04 02:21 8.15216 78.74827 34881 ft 469 kts 133°
2026-05-04 02:21 8.10870 78.79705 34884 ft 467 kts 133°
2026-05-04 02:22 8.06567 78.84540 34882 ft 465 kts 133°
2026-05-04 02:22 8.02246 78.89391 34886 ft 464 kts 134°
2026-05-04 02:23 7.97928 78.94235 34890 ft 464 kts 134°
2026-05-04 02:23 7.93611 78.99078 34897 ft 464 kts 133°
2026-05-04 02:24 7.89283 79.03934 34887 ft 465 kts 133°
2026-05-04 02:24 7.84945 79.08796 34891 ft 466 kts 133°
2026-05-04 02:25 7.80609 79.13657 34882 ft 466 kts 133°
2026-05-04 02:25 7.76278 79.18510 34880 ft 465 kts 133°
2026-05-04 02:26 7.71971 79.23332 34882 ft 464 kts 133°
2026-05-04 02:26 7.67672 79.28190 34881 ft 464 kts 132°
2026-05-04 02:27 7.63396 79.33074 34881 ft 463 kts 133°
2026-05-04 02:27 7.59124 79.37953 34882 ft 464 kts 133°
2026-05-04 02:28 7.54872 79.42800 34871 ft 464 kts 133°
2026-05-04 02:28 7.50586 79.47681 34878 ft 465 kts 133°
2026-05-04 02:29 7.46283 79.52578 34870 ft 466 kts 133°
2026-05-04 02:29 7.41984 79.57470 34872 ft 467 kts 132°
2026-05-04 02:30 7.37667 79.62381 34876 ft 467 kts 133°
2026-05-04 02:30 7.33359 79.67280 34868 ft 467 kts 132°
2026-05-04 02:31 7.29079 79.72149 34878 ft 467 kts 132°
2026-05-04 02:31 7.24766 79.77051 34884 ft 466 kts 132°
2026-05-04 02:32 7.20467 79.81936 34882 ft 466 kts 133°
2026-05-04 02:32 7.16161 79.86828 34886 ft 466 kts 133°
2026-05-04 02:33 7.11861 79.91723 34888 ft 466 kts 132°
2026-05-04 02:33 7.07559 79.96629 34879 ft 467 kts 132°
2026-05-04 02:34 7.03283 80.01505 34880 ft 468 kts 132°
2026-05-04 02:34 6.98954 80.06438 34882 ft 470 kts 132°
2026-05-04 02:35 6.94626 80.11369 34885 ft 470 kts 132°
2026-05-04 02:35 6.90287 80.16311 34883 ft 471 kts 132°
2026-05-04 02:36 6.85945 80.21254 34892 ft 471 kts 132°
2026-05-04 02:36 6.81636 80.26158 34894 ft 470 kts 132°
2026-05-04 02:37 6.77298 80.31095 34899 ft 470 kts 132°
2026-05-04 02:37 6.72970 80.36018 34913 ft 470 kts 132°
2026-05-04 02:38 6.68634 80.40949 34914 ft 470 kts 132°
2026-05-04 02:38 6.64299 80.45878 34921 ft 470 kts 132°
2026-05-04 02:39 6.59955 80.50815 34930 ft 471 kts 132°
2026-05-04 02:39 6.55606 80.55757 34925 ft 471 kts 132°
2026-05-04 02:40 6.51291 80.60660 34926 ft 470 kts 133°
2026-05-04 02:40 6.46966 80.65581 34926 ft 469 kts 132°
2026-05-04 02:41 6.42717 80.70546 34918 ft 467 kts 131°
2026-05-04 02:41 6.38489 80.75526 34915 ft 467 kts 131°
2026-05-04 02:42 6.34266 80.80485 34913 ft 466 kts 131°
2026-05-04 02:42 6.30064 80.85406 34903 ft 466 kts 131°
2026-05-04 02:43 6.25830 80.90363 34899 ft 467 kts 131°
2026-05-04 02:43 6.21597 80.95317 34894 ft 466 kts 131°
2026-05-04 02:44 6.17378 81.00255 34896 ft 465 kts 131°
2026-05-04 02:44 6.13149 81.05202 34890 ft 465 kts 131°
2026-05-04 02:45 6.08928 81.10119 34888 ft 463 kts 132°
2026-05-04 02:45 6.04705 81.14994 34895 ft 462 kts 132°
2026-05-04 02:46 6.00520 81.19823 34903 ft 461 kts 132°
2026-05-04 02:46 5.96309 81.24688 34909 ft 461 kts 132°
2026-05-04 02:47 5.92099 81.29556 34905 ft 462 kts 133°
2026-05-04 02:47 5.87867 81.34441 34904 ft 463 kts 132°
2026-05-04 02:48 5.83626 81.39339 34910 ft 465 kts 133°
2026-05-04 02:48 5.79385 81.44241 34914 ft 465 kts 133°
2026-05-04 02:49 5.75160 81.49117 34901 ft 465 kts 133°
2026-05-04 02:49 5.70915 81.54016 34904 ft 465 kts 132°
2026-05-04 02:50 5.66675 81.58912 34905 ft 464 kts 133°
2026-05-04 02:50 5.62433 81.63805 34904 ft 464 kts 132°
2026-05-04 02:51 5.58211 81.68703 34897 ft 464 kts 132°
2026-05-04 02:51 5.53990 81.73615 34911 ft 465 kts 133°
2026-05-04 02:52 5.49756 81.78540 34916 ft 465 kts 133°
2026-05-04 02:52 5.45519 81.83462 34907 ft 465 kts 133°
2026-05-04 02:53 5.41312 81.88350 34904 ft 466 kts 132°
2026-05-04 02:53 5.37072 81.93278 34912 ft 466 kts 133°
2026-05-04 02:54 5.32838 81.98194 34907 ft 466 kts 132°
2026-05-04 02:54 5.28604 82.03113 34907 ft 465 kts 132°
2026-05-04 02:55 5.22261 82.10471 34913 ft 467 kts 132°
2026-05-04 02:56 5.18008 82.15405 34907 ft 468 kts 131°
2026-05-04 02:56 5.13748 82.20346 34906 ft 469 kts 132°
2026-05-04 02:57 5.09477 82.25301 34910 ft 469 kts 132°
2026-05-04 02:57 5.05203 82.30257 34911 ft 469 kts 132°
2026-05-04 02:58 5.00966 82.35168 34910 ft 468 kts 132°
2026-05-04 02:58 4.96707 82.40104 34915 ft 468 kts 131°
2026-05-04 02:59 4.93166 82.44207 34910 ft 465 kts 131°
2026-05-04 02:59 4.88935 82.49110 34907 ft 463 kts 131°
2026-05-04 03:00 4.84725 82.53986 34913 ft 463 kts 131°
2026-05-04 03:00 4.80505 82.58874 34924 ft 464 kts 131°
2026-05-04 03:01 4.76270 82.63777 34925 ft 465 kts 131°
2026-05-04 03:01 4.72055 82.68657 34916 ft 466 kts 131°
2026-05-04 03:02 4.67788 82.73596 34924 ft 468 kts 131°
2026-05-04 03:02 4.63528 82.78526 34922 ft 468 kts 131°
2026-05-04 03:03 4.59262 82.83460 34919 ft 468 kts 131°
2026-05-04 03:03 4.55000 82.88391 34920 ft 468 kts 131°
2026-05-04 03:04 4.50757 82.93297 34922 ft 469 kts 131°
2026-05-04 03:04 4.46476 82.98247 34921 ft 470 kts 131°
2026-05-04 03:05 4.42178 83.03216 34925 ft 471 kts 131°
2026-05-04 03:05 4.37904 83.08156 34925 ft 472 kts 131°
2026-05-04 03:06 4.33595 83.13135 34923 ft 473 kts 131°
2026-05-04 03:06 4.29284 83.18116 34922 ft 473 kts 130°
2026-05-04 03:07 4.24977 83.23092 34920 ft 472 kts 130°
2026-05-04 03:07 4.20672 83.28064 34922 ft 472 kts 130°
2026-05-04 03:08 4.16367 83.33035 34924 ft 471 kts 130°
2026-05-04 03:08 4.12098 83.37964 34924 ft 471 kts 130°
2026-05-04 03:09 4.07805 83.42920 34925 ft 471 kts 131°
2026-05-04 03:09 4.03506 83.47881 34922 ft 471 kts 131°
2026-05-04 03:10 3.99215 83.52832 34927 ft 471 kts 130°
2026-05-04 03:10 3.94925 83.57782 34930 ft 469 kts 130°
2026-05-04 03:11 3.90664 83.62697 34934 ft 468 kts 131°
2026-05-04 03:11 3.86401 83.67613 34935 ft 467 kts 130°
2026-05-04 03:12 3.82144 83.72523 34913 ft 466 kts 130°
2026-05-04 03:12 3.77896 83.77420 34916 ft 466 kts 130°
2026-05-04 03:13 3.73637 83.82330 34935 ft 467 kts 130°
2026-05-04 03:13 3.69369 83.87250 34935 ft 469 kts 130°
2026-05-04 03:14 3.65113 83.92155 34919 ft 470 kts 130°
2026-05-04 03:14 3.60816 83.97107 34930 ft 472 kts 130°
2026-05-04 03:15 3.56501 84.02080 34911 ft 473 kts 130°
2026-05-04 03:15 3.52181 84.07048 34933 ft 473 kts 130°
2026-05-04 03:16 3.47778 84.11954 34934 ft 474 kts 131°
2026-05-04 03:16 3.43338 84.16844 34933 ft 473 kts 131°
2026-05-04 03:17 3.38943 84.21697 34916 ft 473 kts 130°
2026-05-04 03:17 3.34527 84.26589 34920 ft 473 kts 130°
2026-05-04 03:18 3.30117 84.31480 34928 ft 473 kts 131°
2026-05-04 03:18 3.25702 84.36376 34931 ft 474 kts 130°
2026-05-04 03:19 3.21271 84.41289 34928 ft 474 kts 130°
2026-05-04 03:19 3.16871 84.46165 34929 ft 474 kts 130°
2026-05-04 03:20 3.12449 84.51065 34934 ft 474 kts 131°
2026-05-04 03:20 3.08025 84.55968 34932 ft 474 kts 130°
2026-05-04 03:21 3.03597 84.60873 34917 ft 474 kts 130°
2026-05-04 03:21 2.99168 84.65779 34934 ft 475 kts 131°
2026-05-04 03:22 2.94760 84.70663 34926 ft 477 kts 131°
2026-05-04 03:22 2.90299 84.75603 34926 ft 478 kts 131°
2026-05-04 03:23 2.85831 84.80551 34924 ft 479 kts 130°
2026-05-04 03:23 2.81382 84.85475 34925 ft 480 kts 131°
2026-05-04 03:24 2.76908 84.90425 34922 ft 480 kts 131°
2026-05-04 03:24 2.72437 84.95376 34924 ft 479 kts 131°
2026-05-04 03:25 2.67961 85.00328 34925 ft 479 kts 131°
2026-05-04 03:25 2.63492 85.05275 34930 ft 479 kts 131°
2026-05-04 03:26 2.59017 85.10228 34913 ft 479 kts 131°
2026-05-04 03:26 2.54573 85.15145 34910 ft 479 kts 131°
2026-05-04 03:27 2.50099 85.20093 34929 ft 479 kts 131°
2026-05-04 03:27 2.45621 85.25047 34927 ft 479 kts 131°
2026-05-04 03:28 2.41141 85.30003 34926 ft 479 kts 131°
2026-05-04 03:28 2.36694 85.34920 34911 ft 479 kts 131°
2026-05-04 03:29 2.32224 85.39863 34931 ft 479 kts 131°
2026-05-04 03:29 2.27745 85.44815 34936 ft 478 kts 131°
2026-05-04 03:30 2.23311 85.49718 34913 ft 477 kts 131°
2026-05-04 03:30 2.18870 85.54627 34912 ft 475 kts 131°
2026-05-04 03:31 2.14440 85.59524 34913 ft 474 kts 131°
2026-05-04 03:31 2.10018 85.64410 34929 ft 473 kts 131°
2026-05-04 03:32 2.05610 85.69283 34917 ft 472 kts 131°
2026-05-04 03:32 2.01203 85.74154 34919 ft 472 kts 131°
2026-05-04 03:33 1.96789 85.79030 34930 ft 473 kts 131°
2026-05-04 03:33 1.92370 85.83912 34930 ft 474 kts 131°
2026-05-04 03:34 1.87942 85.88804 34931 ft 475 kts 131°
2026-05-04 03:34 1.83505 85.93706 34928 ft 475 kts 131°
2026-05-04 03:35 1.79068 85.98606 34913 ft 476 kts 131°
2026-05-04 03:35 1.74657 86.03479 34916 ft 476 kts 130°
2026-05-04 03:36 1.70216 86.08385 34930 ft 475 kts 131°
2026-05-04 03:36 1.65777 86.13290 34929 ft 475 kts 131°
2026-05-04 03:37 1.61331 86.18178 34919 ft 475 kts 132°
2026-05-04 03:37 1.56785 86.22956 34917 ft 474 kts 133°
2026-05-04 03:38 1.52229 86.27678 34937 ft 473 kts 133°
2026-05-04 03:38 1.47672 86.32424 34919 ft 472 kts 132°
2026-05-04 03:39 1.43136 86.37168 34918 ft 471 kts 133°
2026-05-04 03:39 1.38606 86.41912 34919 ft 471 kts 132°
2026-05-04 03:40 1.34107 86.46622 34920 ft 471 kts 132°
2026-05-04 03:40 1.29582 86.51359 34920 ft 471 kts 132°
2026-05-04 03:41 1.25058 86.56095 34934 ft 471 kts 132°
2026-05-04 03:41 1.20526 86.60838 34915 ft 471 kts 133°
2026-05-04 03:42 1.16003 86.65572 34919 ft 471 kts 133°
2026-05-04 03:42 1.11481 86.70305 34925 ft 470 kts 132°
2026-05-04 03:43 1.06986 86.75009 34926 ft 470 kts 132°
2026-05-04 03:43 1.02468 86.79736 34924 ft 470 kts 132°
2026-05-04 03:44 0.97948 86.84466 34923 ft 470 kts 133°
2026-05-04 03:44 0.93434 86.89189 34926 ft 470 kts 133°